[[{"header":{"parameterUnit":"m.s-1","parameterCategory":1,"la1":30.2991,"la2":30.254,"lo1":-89.0895,"lo2":-89.0444,"dy":0.0017,"dx":0.0017,"nx":28,"ny":28,"refTime":"2025-06-10T03:00:00:Z","depth":0,"parameterNumber":2,"parameterNumberName":"U-component_of_WINDS"},"data":[0,0,0,0,0,0,0,0,0,0,0,0,0,0,0,0,0,0,0,0,0,0,0,0,0,0,0,0,0,0,0,0,0,0,0,0,0,0,0,0,0,0,0,0,0,0,0,0,0,0,0,0,0,0,0,0,0,0,2.0512,2.0511,0,2.0487,2.0487,2.0486,2.0428,2.0427,2.0426,2.0425,2.0403,2.0403,2.0404,0,0,0,0,0,0,0,0,0,0,0,0,0,2.0511,2.0512,2.0512,2.0511,2.0511,2.0487,2.0487,2.0486,2.0428,2.0427,2.0425,2.0424,2.0402,2.0403,2.0404,0,0,0,0,0,0,0,0,0,0,0,0,0,2.0502,2.0512,2.0512,2.0479,2.0476,2.0487,2.0487,2.0486,2.0429,2.0427,2.0425,2.0423,2.0402,2.0403,2.0404,2.0446,0,0,2.0406,2.0407,0,0,0,0,0,0,0,0,2.0502,2.0502,2.0484,2.0481,2.0478,2.0459,2.0478,2.0473,2.0429,2.0447,2.0424,2.0422,2.0423,2.0422,2.0421,2.0445,2.0444,2.0407,2.0407,2.0407,2.0408,0,0,0,0,0,0,0,2.0503,2.0503,2.0502,2.0484,2.048,2.0467,2.0463,2.0477,2.0446,2.0445,2.0441,2.0438,2.0421,2.0421,2.0421,2.0443,2.0406,2.0407,2.0408,2.0408,2.05,2.0501,0,0,0,0,0,0,2.0508,2.0503,2.0503,2.0501,2.0486,2.0468,2.0464,2.0467,2.0445,2.044,2.044,2.0436,2.042,2.042,2.042,2.0467,2.0407,2.0408,2.0409,2.0498,2.05,2.0502,0,0,0,0,0,0,2.0508,2.0508,2.0504,2.0501,2.0499,2.047,2.0473,2.0467,2.0467,2.0441,2.0436,2.0446,2.0419,2.0418,2.0439,2.0466,2.0409,2.0409,2.0495,2.0498,2.0501,2.0563,0,0,0,0,0,0,2.0508,2.0509,2.0524,2.0502,2.05,2.0523,2.0475,2.0468,2.0468,2.0462,2.0445,2.044,2.0417,2.0438,2.044,2.0466,2.041,2.0493,2.0497,2.05,2.0558,2.0567,2.0575,0,0,0,0,0,2.0509,2.0543,2.0525,2.0525,2.0518,2.0525,2.0524,2.0496,2.0471,2.0486,2.0469,2.0441,2.0462,2.0441,2.0443,2.0469,2.0491,2.0496,2.05,2.0554,2.0566,2.0575,0,0,0,0,0,0,2.057,2.054,2.0519,2.0547,2.0539,2.0515,2.0533,2.0508,2.0508,2.0503,2.0469,2.0465,2.0491,2.0482,2.0459,2.0508,2.0472,2.0477,2.0513,2.0523,2.0532,2.0534,2.0411,0,0,0,0,0,2.0587,2.0594,2.0567,2.0595,2.0591,2.0563,2.0565,2.0544,2.0535,2.0531,2.0516,2.0509,2.0514,2.0518,2.0521,2.0556,2.0552,2.0575,2.0584,2.0591,2.0596,2.0613,2.0624,2.0516,2.0516,2.0516,0,0,2.0622,2.0606,2.0613,2.0607,2.0598,2.0607,2.0561,2.0573,2.0579,2.0533,2.0552,2.0541,2.0531,2.0559,2.057,2.0552,2.0624,2.0596,2.0602,2.0603,2.0619,2.0629,2.0638,2.0519,2.0519,2.0518,0,0,2.069,2.0678,2.07,2.0692,2.0678,2.0659,2.0664,2.0644,2.0634,2.0652,2.0618,2.0626,2.0635,2.0629,2.0627,2.0693,2.0667,2.0695,2.074,2.0757,2.0766,2.0773,2.0797,2.0806,2.07,2.07,2.07,0,2.0735,2.0747,2.0715,2.0728,2.0727,2.0684,2.0706,2.07,2.0689,2.0689,2.0668,2.0679,2.0669,2.0695,2.0711,2.0711,2.0716,2.0697,2.0767,2.0774,2.0781,2.0803,2.0812,2.0703,2.0703,2.0703,2.0702,0,2.0804,2.0812,2.0831,2.082,2.0821,2.0839,2.081,2.0815,2.0793,2.0777,2.0796,2.0782,2.0782,2.0786,2.0766,2.081,2.0799,2.0773,2.0736,2.0795,2.0815,2.0823,2.0708,2.0707,2.0706,2.0705,0,0,2.0911,2.0881,2.0889,2.0883,2.0865,2.0871,2.0888,2.0886,2.0891,2.0885,2.0898,2.0906,2.0882,2.088,2.0859,2.0874,2.0927,2.0847,2.0846,2.0862,2.0975,2.0995,2.1005,2.091,2.0911,2.0912,2.0976,0,2.0975,2.1,2.0971,2.1003,2.1011,2.097,2.0984,2.0975,2.096,2.0965,2.0948,2.0955,2.0922,2.0921,2.0934,2.0918,2.095,2.0913,2.0923,2.0923,2.0927,2.1016,2.1037,2.1098,2.0984,2.0985,2.0986,0,2.1054,2.105,2.1082,2.1061,2.1064,2.1077,2.1073,2.1078,2.1067,2.1055,2.1052,2.1026,2.1041,2.1005,2.1026,2.1002,2.1004,2.0996,2.0998,2.0998,2.0959,2.1019,2.1116,2.1126,2.0998,2.0997,2.0996,0,2.113,2.1133,2.1152,2.1148,2.1125,2.1135,2.1126,2.1113,2.1113,2.111,2.111,2.111,2.111,2.111,2.1085,2.106,2.1109,2.107,2.11,2.1101,2.1113,2.1112,2.1212,2.1113,2.1113,2.1113,2.1113,0,2.1205,2.1227,2.1185,2.1198,2.122,2.1187,2.1211,2.1197,2.1186,2.1195,2.116,2.117,2.1135,2.1142,2.1122,2.1143,2.1143,2.1134,2.1129,2.1137,2.1139,2.1139,2.1134,2.1115,2.1115,2.1114,2.1114,0,2.1294,2.1267,2.1286,2.1261,2.1255,2.1273,2.1253,2.1263,2.1245,2.1258,2.1259,2.1231,2.1237,2.1211,2.1213,2.1199,2.123,2.1217,2.1234,2.123,2.1261,2.1258,2.1364,2.1377,2.127,2.1271,2.1272,0,2.1344,2.1359,2.1336,2.1339,2.1331,2.1337,2.1337,2.1305,2.1307,2.1295,2.1307,2.1309,2.131,2.1321,2.1301,2.1302,2.129,2.1327,2.129,2.1298,2.1291,2.129,2.1292,2.1335,2.1336,2.1337,2.1338,0,2.1436,2.1422,2.1423,2.1419,2.142,2.1416,2.141,2.1415,2.138,2.1384,2.1388,2.1388,2.1389,2.1392,2.1389,2.138,2.1354,2.135,2.1357,2.1366,2.1375,2.1371,2.1255,2.1348,2.1347,2.1346,2.1345,2.1345,2.1507,2.1519,2.1504,2.1506,2.1498,2.1492,2.1501,2.1484,2.1486,2.1484,2.1465,2.1473,2.1461,2.1454,2.1448,2.1454,2.1437,2.1447,2.145,2.1453,2.1458,2.1373,2.1454,2.1453,2.1453,2.1453,2.1453,0,2.1598,2.1586,2.1588,2.158,2.1582,2.1555,2.1546,2.155,2.1557,2.1548,2.1549,2.1554,2.1556,2.1537,2.1537,2.1546,2.1534,2.1547,2.1547,2.1545,2.1474,2.1468,2.1557,2.1557,2.1557,2.1557,2.1557,2.1557,2.1645,2.1663,2.1647,2.166,2.1648,2.1655,2.1653,2.1648,2.164,2.1647,2.1649,2.1635,2.1622,2.1621,2.1623,2.1617,2.1619,2.1636,2.1627,2.156,2.155,2.1541,2.1535,2.1637,2.1637,2.1698,2.1698,2.1699]},{"header":{"parameterUnit":"m.s-1","parameterCategory":1,"la1":30.2991,"la2":30.254,"lo1":-89.0895,"lo2":-89.0444,"dy":0.0017,"dx":0.0017,"nx":28,"ny":28,"refTime":"2025-06-10T03:00:00:Z","depth":0,"parameterNumber":3,"parameterNumberName":"V-component_of_WINDS"},"data":[0,0,0,0,0,0,0,0,0,0,0,0,0,0,0,0,0,0,0,0,0,0,0,0,0,0,0,0,0,0,0,0,0,0,0,0,0,0,0,0,0,0,0,0,0,0,0,0,0,0,0,0,0,0,0,0,0,0,2.54,2.5402,0,2.5535,2.5537,2.5538,2.5591,2.559,2.559,2.559,2.5725,2.5729,2.5733,0,0,0,0,0,0,0,0,0,0,0,0,0,2.5184,2.5188,2.54,2.5402,2.5404,2.5535,2.5537,2.5538,2.5591,2.559,2.559,2.559,2.5724,2.5728,2.5733,0,0,0,0,0,0,0,0,0,0,0,0,0,2.5294,2.5189,2.54,2.5446,2.5451,2.5534,2.5537,2.5539,2.5591,2.559,2.559,2.5589,2.5722,2.5728,2.5734,2.5781,0,0,2.5752,2.5754,0,0,0,0,0,0,0,0,2.5288,2.5302,2.5437,2.5443,2.5449,2.5546,2.551,2.562,2.5591,2.5538,2.559,2.5589,2.5666,2.5676,2.5703,2.5787,2.5793,2.5752,2.5756,2.5759,2.576,0,0,0,0,0,0,0,2.528,2.5297,2.5454,2.5439,2.5446,2.5458,2.5473,2.5531,2.5603,2.5542,2.5547,2.5562,2.5669,2.5697,2.5706,2.5795,2.5752,2.5758,2.5761,2.5763,2.5922,2.5923,0,0,0,0,0,0,2.5266,2.529,2.5449,2.5458,2.5366,2.5462,2.5479,2.5515,2.5603,2.5615,2.5562,2.5564,2.5687,2.5699,2.5711,2.5771,2.5758,2.5764,2.5767,2.5922,2.5923,2.5923,0,0,0,0,0,0,2.5261,2.5279,2.5444,2.5375,2.5397,2.5467,2.5506,2.5518,2.5546,2.5618,2.563,2.5578,2.5687,2.5703,2.5763,2.5776,2.5767,2.5772,2.5921,2.5922,2.5923,2.5891,0,0,0,0,0,0,2.5254,2.5277,2.5297,2.5375,2.54,2.5495,2.5507,2.5521,2.5556,2.556,2.5636,2.5648,2.5688,2.5754,2.5769,2.5784,2.5777,2.592,2.5921,2.5923,2.5891,2.589,2.589,0,0,0,0,0,2.5246,2.5283,2.5298,2.5317,2.5427,2.5495,2.551,2.5556,2.5557,2.5577,2.5622,2.5645,2.5772,2.5759,2.5777,2.5794,2.5919,2.5921,2.5923,2.5891,2.5891,2.589,0,0,0,0,0,0,2.5204,2.5294,2.5312,2.5374,2.5427,2.5504,2.5531,2.5554,2.5607,2.5608,2.5662,2.5678,2.5733,2.577,2.5754,2.5843,2.5847,2.5852,2.5817,2.5817,2.5817,2.5807,2.5782,0,0,0,0,0,2.5202,2.5252,2.5327,2.5375,2.54,2.546,2.5492,2.5523,2.5579,2.5601,2.5651,2.5704,2.5756,2.5789,2.584,2.5896,2.5912,2.5916,2.5916,2.5915,2.5919,2.5949,2.5951,2.5928,2.5928,2.5928,0,0,2.5199,2.5254,2.5282,2.5368,2.5412,2.546,2.5479,2.553,2.5566,2.5609,2.5669,2.5707,2.5769,2.5826,2.5854,2.5858,2.5928,2.5917,2.5916,2.592,2.5951,2.5953,2.5955,2.5929,2.5929,2.5929,0,0,2.5217,2.5264,2.5308,2.5352,2.5419,2.5458,2.5468,2.5542,2.5569,2.563,2.5662,2.5705,2.5793,2.5836,2.5869,2.59,2.5922,2.5915,2.5913,2.5942,2.5943,2.5945,2.5955,2.5958,2.5918,2.5918,2.5918,0,2.5204,2.5279,2.5328,2.5377,2.5413,2.5454,2.5498,2.5537,2.5617,2.564,2.5644,2.5754,2.5799,2.5866,2.5873,2.5899,2.5911,2.5907,2.5939,2.5942,2.5944,2.5954,2.5958,2.5917,2.5917,2.5917,2.5917,0,2.5259,2.531,2.5338,2.5414,2.5453,2.5499,2.5553,2.5586,2.5613,2.5651,2.5711,2.5766,2.5828,2.5846,2.5873,2.5917,2.5917,2.5929,2.5935,2.5944,2.5954,2.5959,2.5915,2.5915,2.5916,2.5916,0,0,2.5256,2.5357,2.5366,2.54,2.5475,2.5515,2.5562,2.5623,2.565,2.5703,2.5742,2.5815,2.5826,2.5863,2.5895,2.592,2.5939,2.5929,2.5931,2.5928,2.5989,2.5979,2.5983,2.5954,2.5955,2.5956,2.5983,0,2.5284,2.537,2.5414,2.5481,2.5528,2.5567,2.5607,2.5656,2.5693,2.5737,2.5777,2.5827,2.5839,2.5861,2.5888,2.5931,2.5952,2.593,2.599,2.5992,2.5973,2.5988,2.5979,2.6002,2.5987,2.5988,2.5989,0,2.5328,2.538,2.5452,2.552,2.5541,2.5577,2.5635,2.5677,2.5733,2.5758,2.5798,2.5829,2.5877,2.5879,2.5946,2.5929,2.5956,2.5981,2.5983,2.599,2.5991,2.5995,2.6011,2.6014,2.5996,2.5995,2.5995,0,2.5317,2.5405,2.5459,2.5487,2.5568,2.5592,2.5626,2.5682,2.5715,2.5766,2.5788,2.5843,2.5873,2.5914,2.5958,2.5955,2.602,2.6025,2.6041,2.604,2.6053,2.6052,2.6072,2.6071,2.607,2.607,2.607,0,2.5343,2.5385,2.5455,2.5488,2.5535,2.5584,2.563,2.5667,2.5716,2.5755,2.5792,2.5828,2.5884,2.5926,2.596,2.601,2.6023,2.6043,2.6052,2.604,2.6038,2.6059,2.6058,2.6071,2.6071,2.6071,2.6071,0,2.5339,2.5388,2.5449,2.552,2.5538,2.557,2.563,2.5663,2.57,2.575,2.5765,2.5823,2.5875,2.5923,2.5992,2.6015,2.6064,2.6075,2.6046,2.605,2.6063,2.6061,2.6098,2.6105,2.6098,2.6098,2.6098,0,2.5352,2.5385,2.5459,2.5489,2.5523,2.557,2.5604,2.5652,2.5686,2.5751,2.5775,2.583,2.5876,2.5957,2.6005,2.6057,2.607,2.6079,2.6078,2.6065,2.6069,2.6067,2.607,2.6079,2.6078,2.6078,2.6078,0,2.537,2.5392,2.544,2.5496,2.5535,2.5582,2.5629,2.5651,2.5708,2.5743,2.5797,2.5833,2.5903,2.5956,2.6014,2.6048,2.6072,2.6078,2.6084,2.6073,2.6054,2.6063,2.6043,2.6077,2.6077,2.6077,2.6077,2.6077,2.5374,2.5405,2.5462,2.5513,2.5554,2.5597,2.563,2.5672,2.5718,2.5779,2.5804,2.5858,2.5911,2.5991,2.6025,2.6067,2.6072,2.6081,2.6083,2.6085,2.6082,2.6047,2.6077,2.6078,2.6078,2.6078,2.6078,0,2.5393,2.5431,2.5478,2.5543,2.5583,2.5603,2.5655,2.5687,2.5735,2.5783,2.5827,2.5888,2.5939,2.599,2.6044,2.6068,2.608,2.608,2.6079,2.6086,2.6075,2.6064,2.6069,2.6069,2.6069,2.6069,2.6069,2.6069,2.5408,2.546,2.5488,2.556,2.5598,2.5652,2.568,2.5719,2.5757,2.5823,2.5866,2.59,2.5948,2.6005,2.6053,2.6066,2.6084,2.6081,2.6097,2.6087,2.6087,2.6087,2.6077,2.6085,2.6085,2.6105,2.6105,2.6105]}]]